Location: Ostrava
(49.8330°N, 18.2830°E)
Time: 18:22:28
(UTC+02:00)

Lacrosse 5 - Visible Passes

Search period start: 23 September 2014 00:00
Search period end: 03 October 2014 00:00
Orbit: 706 x 722 km, 57.0° (Epoch: 17 September)

Date Brightness Start Highest point End Pass type
(mag) Time Alt. Az. Time Alt. Az. Time Alt. Az.
23 Sep 1.8 20:34:52 10° WSW 20:39:54 85° NNW 20:43:25 20° NE visible
23 Sep 3.2 22:18:32 10° W 22:22:31 37° NNW 22:22:31 37° NNW visible
24 Sep 1.9 19:40:12 10° SW 19:45:09 63° SE 19:50:06 10° ENE visible
24 Sep 2.7 21:23:21 10° W 21:28:12 47° NNW 21:29:49 35° NNE visible
24 Sep 4.2 23:07:14 10° WNW 23:08:55 19° NW 23:08:55 19° NW visible
25 Sep 2.2 20:28:15 10° WSW 20:33:14 63° NNW 20:37:03 17° NE visible
25 Sep 3.2 22:12:07 10° WNW 22:16:08 35° NNW 22:16:08 35° NNW visible
26 Sep 1.8 19:33:20 10° SW 19:38:22 90° NW 19:43:24 10° ENE visible
26 Sep 2.9 21:16:56 10° W 21:21:40 40° NNW 21:23:17 31° NNE visible
26 Sep 4.2 23:00:42 10° WNW 23:02:22 20° NW 23:02:22 20° NW visible
27 Sep 2.6 20:21:45 10° W 20:26:38 49° NNW 20:30:24 16° NE visible
27 Sep 3.3 22:05:40 10° WNW 22:09:29 34° NNW 22:09:29 34° NNW visible
28 Sep 2.2 19:26:41 10° WSW 19:31:41 67° NNW 19:36:41 10° NE visible
28 Sep 3.0 21:10:32 10° WNW 21:15:11 37° N 21:16:34 31° NNE visible
28 Sep 4.2 22:54:04 10° NW 22:55:39 20° NW 22:55:39 20° NW visible
29 Sep 2.9 20:15:21 10° W 20:20:06 41° NNW 20:23:38 17° NE visible
29 Sep 3.3 21:59:08 10° WNW 22:02:43 34° NNW 22:02:43 34° NNW visible
30 Sep 2.6 19:20:10 10° W 19:25:04 51° NNW 19:29:58 10° NE visible
30 Sep 2.9 21:04:05 10° WNW 21:08:44 36° N 21:09:46 33° NNE visible
30 Sep 4.3 22:47:23 10° NW 22:48:51 19° NW 22:48:51 19° NW visible
01 Oct 3.0 20:08:57 10° WNW 20:13:37 37° N 20:16:49 18° NE visible
01 Oct 3.2 21:52:31 10° WNW 21:55:54 35° NNW 21:55:54 35° NNW visible
02 Oct 2.8 19:13:45 10° W 19:18:32 42° NNW 19:23:18 10° ENE visible
02 Oct 2.8 20:57:34 10° WNW 21:02:16 38° N 21:02:57 36° NNE visible
02 Oct 4.3 22:40:40 10° NW 22:42:01 19° NW 22:42:01 19° NW visible
